CAPE
2170 2295 2332 2675 2769 2255 2155 2007 672 118 0 0 1 377 1853 2204 2021 2149 2160 1937 2113 2390 1814 1776 1682 1713 1330 1583 1311 1366 1198 1061 738 598 793 364 10 1 0 234 611 187 174
2015 2098 2313 2455 2412 2297 1926 2197 1702 729 495 450 622 1996 2014 2159 2335 2233 2313 1910 1977 1886 1659 1481 1366 1472 1571 1283 1123 1067 1260 887 627 338 373 444 240 471 664 428 486 725 486
1964 2272 2279 2379 2361 2099 2010 2099 2008 2204 2127 2028 2069 2361 2271 2424 2329 2190 2186 2353 2387 2062 2043 1872 1953 1762 1708 1533 1387 1213 1291 1043 867 655 577 543 558 667 489 556 680 696 450
2158 2043 2174 2529 2372 2090 2375 2052 2369 2475 2330 2432 2341 2558 2548 2487 2427 2251 2237 2410 2488 2237 2013 1563 1451 1528 1243 1123 1220 1057 930 750 588 719 434 283 452 646 499 234 175 246 293
2399 1931 2492 2638 2817 2629 2689 2560 2429 2612 2628 2670 2834 2927 2687 2294 2319 2436 2621 2161 1945 1656 1417 1498 1499 1223 1059 783 460 452 291 429 761 738 357 367 329 154 123 237 347 184 203
2344 1880 2396 2889 2898 3151 3159 3003 3241 2711 2635 2872 3119 2864 2765 2436 1593 2044 1911 1563 1647 1602 1353 887 903 903 1105 478 373 186 90 58 118 588 489 560 468 468 511 461 461 362 117
1981 1994 3242 3038 3075 3305 3603 3170 3455 3158 2458 2497 2965 2426 2562 1367 427 714 659 1719 1326 878 861 869 812 952 415 494 1025 554 378 316 29 22 74 152 221 519 709 590 573 491 294
2132 1799 3057 3408 3503 3535 3852 3484 3988 2607 2763 2561 3001 2988 2407 409 172 132 30 1544 1242 967 810 487 267 378 0 0 10 459 630 831 762 447 352 541 735 578 553 675 437 308 358
2143 2236 3109 3378 3617 4096 4167 3954 4018 3384 2868 2938 2650 2659 1596 421 6 0 332 1430 1043 951 777 140 32 0 0 0 0 137 238 530 609 444 342 254 165 117 52 69 148 266 319
2779 2716 3475 3735 3575 3591 4083 4076 4158 3449 3093 2535 2267 2479 1625 129 0 0 104 806 271 149 920 0 0 0 0 0 0 0 34 168 147 409 469 490 332 432 324 295 314 274 323
3065 3310 3709 3490 3296 3897 4069 4388 3593 3164 2955 2463 2305 1957 1393 77 0 0 0 9 12 0 130 0 0 0 0 0 0 0 0 0 0 91 321 350 198 574 493 353 458 477 369
3097 3242 3403 3369 3604 4248 4456 4071 3394 2951 2511 2471 2202 1712 964 4 0 0 0 0 0 0 0 0 0 0 0 0 0 0 0 0 1 5 6 2 0 6 5 38 246 259 357
3012 3145 3319 3506 4070 4441 4069 3658 3249 3037 2593 2253 1730 1415 306 0 0 0 0 0 0 0 0 0 0 0 0 0 0 0 0 0 0 0 0 0 0 0 0 0 0 0 15
2742 3136 3585 4093 4377 4115 4014 3750 3416 2969 2621 2026 1402 1233 574 2 0 0 0 0 0 0 0 0 0 0 0 0 0 0 0 0 0 0 0 0 0 0 0 0 0 0 0
3354 3920 4207 4267 4253 3904 2492 2560 3061 2416 1819 1758 1297 1248 599 222 49 0 0 0 0 0 0 0 0 0 0 0 0 0 0 0 0 0 0 0 0 0 0 0 2 0 0
3967 4127 4134 4165 3669 1380 894 316 0 18 22 416 997 624 51 87 0 0 0 0 0 0 0 0 0 0 0 0 0 0 0 0 0 0 0 0 0 0 0 0 0 0 0
3841 4014 4101 3658 1721 898 326 204 66 0 0 0 0 0 0 0 0 0 0 0 0 0 0 0 0 0 0 0 0 0 0 0 0 0 0 0 0 0 0 0 0 0 0
3792 3593 3361 2987 1352 730 324 53 22 53 33 0 0 0 0 0 0 0 0 0 0 0 0 0 0 0 0 0 0 0 0 0 0 0 0 0 0 0 0 0 0 0 0
3168 2877 2583 1483 1426 782 301 315 204 311 46 0 0 0 0 0 0 0 0 0 0 0 0 0 0 0 0 0 0 0 0 0 0 0 0 0 0 0 0 0 0 0 0
1719 1533 589 387 298 246 241 139 78 153 16 0 0 0 0 0 0 0 0 0 0 0 0 0 0 0 0 0 0 0 0 0 0 0 0 0 0 0 0 0 0 0 0
831 326 103 29 14 1 37 72 36 34 18 0 0 0 0 0 0 0 0 0 0 0 0 0 0 0 0 0 0 0 0 0 0 0 0 0 0 0 0 0 0 0 0
192 135 75 84 8 40 40 67 114 199 52 1 0 0 0 0 0 0 0 0 0 0 0 0 0 0 0 0 0 0 0 0 0 0 0 0 0 0 0 0 0 0 0
206 167 46 34 102 123 343 307 349 266 180 42 0 0 0 0 0 0 0 0 0 0 0 0 0 0 0 0 0 0 0 0 0 0 0 0 0 0 0 0 0 0 0
535 525 60 118 535 406 390 415 438 244 197 46 0 0 0 0 0 0 0 0 0 0 0 0 0 0 0 0 0 0 0 0 0 0 0 0 0 0 0 0 0 0 0
507 607 438 384 562 537 451 310 337 187 103 22 0 0 0 0 0 0 0 0 0 0 0 0 0 0 0 0 0 0 0 0 0 0 0 0 0 0 0 0 0 0 0
690 1086 762 442 540 470 359 298 230 180 78 0 0 0 0 0 0 0 0 0 0 0 0 0 0 0 0 0 0 0 0 0 0 0 0 0 0 0 0 0 0 0 0
CIN
-42 -54 -38 -22 -17 -13 -3 -4 -134 -177 -47 -0 -23 -200 -15 -14 -22 -18 -5 -9 -7 -5 -16 -10 -9 -6 -18 -6 -10 -9 -19 -16 -18 -20 -7 -64 -112 -8 -0 -57 -6 -60 -98
-56 -63 -41 -36 -17 -13 -13 -1 -47 -120 -164 -156 -139 -3 -2 -5 -2 -2 -2 -5 -8 -19 -20 -30 -28 -19 -4 -13 -24 -23 -12 -18 -15 -19 -11 -16 -48 -45 -21 -22 -13 -3 -20
-64 -37 -47 -60 -39 -17 -16 -1 -6 -8 -4 -5 -9 -7 -10 -1 -0 -1 -5 -2 -2 -7 -8 -9 -2 -4 -3 -2 -3 -9 -9 -8 -5 -8 -5 -4 -11 -31 -45 -41 -29 -26 -20
-43 -40 -37 -47 -45 -42 -16 -13 -4 -4 -10 -5 -6 -9 -7 -7 -1 -10 -14 -4 -1 -2 -2 -4 -7 -3 -6 -11 -6 -8 -9 -11 -18 -13 -9 -14 -10 -4 -14 -15 -26 -28 -29
-44 -41 -23 -41 -38 -39 -26 -23 -11 -7 -19 -14 -3 -5 -8 -13 -14 -9 -1 -1 -0 -1 -1 -4 -9 -8 -14 -22 -50 -46 -56 -31 -14 -9 -16 -17 -10 -37 -27 -20 -16 -16 -12
-79 -67 -19 -43 -45 -36 -28 -26 -8 -20 -19 -11 -3 -12 -5 -23 -46 -19 -7 -8 -2 -3 -16 -31 -29 -23 -14 -66 -91 -130 -166 -165 -112 -14 -12 -5 -17 -13 -9 -16 -15 -15 -19
-121 -97 -36 -60 -64 -45 -21 -21 -11 -22 -37 -11 -8 -20 -19 -76 -155 -85 -76 -6 -25 -39 -32 -31 -21 -3 -76 -55 -7 -58 -90 -87 -137 -159 -159 -94 -71 -31 -20 -21 -4 -4 -18
-147 -113 -70 -79 -64 -50 -18 -18 -7 -57 -35 -19 -4 -2 -42 -203 -229 -176 -178 -12 -31 -29 -35 -95 -146 -101 -0 -0 -147 -37 -9 -4 -12 -62 -70 -36 -10 -24 -15 -0 -6 -8 -8
-184 -129 -101 -111 -75 -29 -9 -14 -2 -14 -17 -12 -8 -5 -77 -184 -56 -0 -108 -11 -9 -18 -35 -238 -313 -0 -0 -0 -0 -208 -85 -21 -9 -28 -70 -94 -116 -152 -203 -179 -100 -17 -3
-214 -171 -114 -97 -85 -69 -34 -17 -1 -10 -18 -17 -13 -7 -87 -228 -0 -0 -182 -16 -85 -136 -40 -0 -0 -0 -0 -0 -0 -0 -353 -207 -216 -83 -50 -39 -89 -55 -102 -99 -53 -38 -22
-197 -134 -83 -111 -108 -49 -39 -3 -21 -25 -14 -13 -3 -43 -100 -277 -0 -0 -0 -144 -168 -0 -92 -0 -0 -0 -0 -0 -0 -0 -0 -0 -0 -331 -128 -123 -188 -42 -29 -60 -15 -8 -17
-171 -133 -105 -97 -58 -19 -1 -3 -19 -17 -11 -1 -30 -64 -141 -274 -0 -0 -0 -0 -0 -0 -0 -0 -0 -0 -0 -0 -0 -0 -0 -0 -4 -141 -165 -101 -0 -138 -387 -268 -83 -53 -25
-169 -136 -93 -45 -7 -1 -8 -9 -8 -1 -1 -29 -61 -87 -254 -0 -0 -0 -0 -0 -0 -0 -0 -0 -0 -0 -0 -0 -0 -0 -0 -0 -0 -0 -0 -0 -0 -0 -0 -0 -0 -38 -73
-169 -121 -49 -1 -0 -4 -0 -0 -0 -0 -0 -36 -105 -94 -194 -59 -0 -0 -0 -0 -0 -0 -0 -0 -0 -0 -0 -0 -0 -0 -0 -0 -0 -0 -0 -0 -0 -0 -0 -0 -0 -0 -0
-66 -23 -4 -0 -1 -3 -121 -61 -2 -34 -41 -31 -72 -68 -177 -243 -297 -0 -0 -0 -0 -0 -0 -0 -0 -0 -0 -0 -0 -0 -0 -0 -0 -0 -0 -0 -0 -0 -0 -0 -2 -0 -3
-5 -0 -0 -0 -3 -208 -270 -424 -0 -155 -365 -178 -48 -93 -420 -66 -0 -0 -0 -0 -0 -0 -0 -0 -0 -0 -0 -0 -0 -0 -0 -0 -0 -0 -0 -0 -0 -0 -0 -0 -0 -0 -0
-1 -0 -0 -3 -107 -242 -356 -362 -474 -0 -0 -0 -0 -0 -0 -0 -0 -0 -0 -0 -0 -0 -0 -0 -0 -0 -0 -0 -0 -0 -0 -0 -0 -0 -0 -0 -0 -0 -0 -0 -0 -0 -0
-1 -2 -4 -5 -123 -236 -258 -357 -419 -315 -300 -0 -0 -0 -0 -0 -0 -0 -0 -0 -0 -0 -0 -0 -0 -0 -0 -0 -0 -0 -0 -0 -0 -0 -0 -0 -0 -0 -0 -0 -0 -0 -0
-2 -11 -7 -91 -23 -91 -230 -175 -203 -143 -256 -0 -0 -0 -0 -0 -0 -0 -0 -0 -0 -0 -0 -0 -0 -0 -0 -0 -0 -0 -0 -0 -0 -0 -0 -0 -0 -0 -0 -0 -0 -0 -0
-55 -38 -117 -110 -95 -73 -91 -129 -152 -125 -282 -0 -0 -0 -0 -0 -0 -0 -0 -0 -0 -0 -0 -0 -0 -0 -0 -0 -0 -0 -0 -0 -0 -0 -0 -0 -0 -0 -0 -0 -0 -0 -0
-131 -160 -93 -109 -151 -166 -83 -24 -24 -78 -149 -0 -0 -0 -0 -0 -0 -0 -0 -0 -0 -0 -0 -0 -0 -0 -0 -0 -0 -0 -0 -0 -0 -0 -0 -0 -0 -0 -0 -0 -0 -0 -0
-350 -233 -195 -88 -19 -15 -64 -93 -10 -6 -51 -65 -0 -0 -0 -0 -0 -0 -0 -0 -0 -0 -0 -0 -0 -0 -0 -0 -0 -0 -0 -0 -0 -0 -0 -0 -0 -0 -0 -0 -0 -0 -0
-354 -319 -461 -305 -113 -26 -1 -2 -8 -19 -59 -186 -0 -0 -0 -0 -0 -0 -0 -0 -0 -0 -0 -0 -0 -0 -0 -0 -0 -0 -0 -0 -0 -0 -0 -0 -0 -0 -0 -0 -0 -0 -0
-184 -159 -329 -278 -21 -14 -16 -11 -7 -50 -44 -67 -0 -0 -0 -0 -0 -0 -0 -0 -0 -0 -0 -0 -0 -0 -0 -0 -0 -0 -0 -0 -0 -0 -0 -0 -0 -0 -0 -0 -0 -0 -0
-179 -145 -129 -123 -43 -17 -26 -59 -51 -85 -78 -87 -0 -0 -0 -0 -0 -0 -0 -0 -0 -0 -0 -0 -0 -0 -0 -0 -0 -0 -0 -0 -0 -0 -0 -0 -0 -0 -0 -0 -0 -0 -0
-131 -79 -137 -132 -101 -82 -74 -87 -60 -50 -67 -0 -0 -0 -0 -0 -0 -0 -0 -0 -0 -0 -0 -0 -0 -0 -0 -0 -0 -0 -0 -0 -0 -0 -0 -0 -0 -0 -0 -0 -0 -0 -0
Wind_Speed
13 12 10 9 8 7 11 10 8 9 13 17 22 22 15 11 13 14 13 13 12 11 12 4 7 6 6 7 6 8 12 4 3 5 18 14 13 10 7 4 2 6 4
14 8 8 9 10 9 7 7 8 8 11 12 18 13 10 10 11 11 11 16 12 9 7 7 6 5 5 6 7 10 5 6 1 2 1 8 8 8 8 7 5 5 4
18 19 20 14 12 10 10 10 10 8 8 9 9 10 10 10 11 10 10 13 14 12 15 10 7 7 5 4 5 4 3 6 6 9 6 10 10 8 8 7 7 5 4
19 20 19 18 15 13 12 12 11 8 7 6 7 9 9 11 10 9 10 12 12 12 14 15 9 7 14 13 13 11 8 11 9 7 5 6 12 9 7 10 10 7 9
16 18 14 16 16 15 14 12 13 8 5 5 6 7 10 12 10 11 12 13 16 20 19 21 19 15 12 13 11 10 14 15 12 12 11 3 14 18 11 11 14 15 14
15 17 15 14 15 15 14 13 12 11 8 12 8 8 11 9 11 11 13 15 18 22 24 25 21 24 14 15 14 13 14 13 8 12 14 13 14 16 18 16 16 17 18
14 18 16 14 14 16 14 12 11 9 5 20 9 9 8 9 10 11 13 17 20 22 21 21 22 22 22 20 16 10 8 7 8 10 10 9 12 16 17 15 14 14 14
16 21 18 16 15 14 13 13 13 13 13 16 11 8 8 10 10 11 13 15 16 18 19 20 20 20 22 21 19 14 13 10 10 10 10 10 11 13 14 14 13 13 12
19 21 20 18 16 14 12 10 9 12 13 13 11 9 10 10 10 11 11 13 12 15 16 19 19 21 22 24 20 17 17 16 13 10 8 7 7 7 9 11 10 10 12
20 21 20 18 16 14 13 10 7 8 7 8 9 8 9 9 10 11 15 18 15 20 15 17 21 22 24 24 20 18 14 16 17 14 10 6 2 3 6 7 8 9 10
17 17 17 17 16 15 13 11 10 8 7 7 7 7 9 9 11 14 17 18 21 22 18 17 22 24 25 25 23 21 18 14 12 11 11 14 20 18 15 12 9 8 10
12 13 15 15 15 14 11 11 11 9 7 6 6 6 8 9 11 14 15 18 21 21 20 21 21 22 21 22 22 20 19 18 14 14 16 19 22 23 21 19 15 12 11
11 12 12 12 14 12 11 10 10 11 9 7 6 5 6 7 9 12 14 17 20 18 19 19 19 20 18 16 22 24 20 18 20 19 19 20 21 22 22 23 22 23 21
10 11 11 12 10 9 8 8 8 10 8 6 6 7 5 6 7 9 11 13 17 17 17 16 16 17 19 18 17 21 21 22 21 19 19 20 22 23 23 24 23 24 23
9 10 11 11 10 9 4 5 4 5 6 7 7 6 5 4 5 8 12 14 17 17 15 12 13 14 15 16 17 20 21 21 21 22 22 22 22 23 24 24 25 24 23
8 9 11 11 10 9 7 6 8 7 4 2 4 3 4 4 5 8 12 16 17 17 15 14 15 16 16 17 18 18 20 22 21 20 19 21 22 23 25 25 25 25 25
10 10 11 13 13 13 12 11 8 5 3 4 2 1 1 3 6 9 12 15 15 14 15 16 16 16 16 17 17 18 18 18 19 18 20 20 21 23 24 26 26 27 28
11 12 13 15 15 14 13 13 11 10 9 7 9 4 4 6 8 10 11 14 14 14 17 15 15 15 15 15 16 17 16 17 18 17 17 18 21 23 23 24 25 27 28
11 15 15 16 17 14 15 15 14 13 13 10 9 10 11 10 11 12 11 15 14 13 14 15 15 13 13 13 15 16 16 17 18 18 19 21 23 24 24 25 26 27 28
15 16 16 15 17 15 13 15 14 15 16 15 15 12 13 15 15 14 11 14 16 14 15 15 15 15 15 16 15 15 18 19 19 19 21 22 23 23 24 24 25 26 28
11 9 8 15 16 14 13 22 18 17 16 15 17 14 12 13 14 12 13 12 13 12 13 14 13 14 14 14 17 18 18 16 17 20 21 20 22 23 24 25 26 27 29
7 6 5 3 30 27 19 21 26 20 19 15 14 8 6 7 8 9 9 11 12 13 11 12 12 10 12 14 14 14 14 17 19 20 21 21 21 22 25 25 26 28 28
4 7 11 14 19 24 13 7 9 14 14 9 7 5 5 9 14 8 10 11 11 11 11 10 10 11 13 15 16 16 17 18 19 20 21 21 22 23 24 24 25 26 28
2 5 10 10 12 14 16 16 9 7 5 7 5 6 8 9 10 9 9 8 9 10 10 11 12 12 13 13 14 15 16 18 19 20 20 20 21 21 23 22 24 27 27
4 4 3 7 3 3 3 4 8 9 13 11 9 9 9 9 10 8 7 7 8 8 8 9 11 11 11 12 13 13 15 17 17 18 20 20 19 19 20 24 26 25 24
8 6 6 5 5 4 11 15 20 16 13 12 10 9 9 9 7 5 5 5 6 7 7 8 9 9 8 9 10 11 14 16 17 19 20 18 18 20 23 25 25 24 22
Wind_Direction
146 141 138 129 116 102 332 9 21 59 72 103 156 189 127 59 87 129 143 41 57 55 47 31 128 170 172 177 165 187 217 165 86 47 17 40 45 96 194 169 51 37 91
144 143 139 130 123 107 113 57 73 80 91 89 151 117 58 32 46 91 71 2 45 80 145 162 175 75 150 181 193 215 183 207 118 205 205 39 67 99 121 79 95 55 52
147 143 151 142 137 122 114 114 109 95 86 76 74 62 33 25 46 84 65 39 30 47 27 58 77 80 117 120 81 71 87 52 60 40 58 51 46 63 67 55 44 41 30
144 146 145 147 143 136 120 117 114 86 67 33 60 66 27 90 100 83 73 41 53 55 46 37 57 70 29 32 30 34 47 29 35 37 48 49 25 32 35 21 22 21 11
143 151 139 142 145 142 131 121 120 101 34 21 57 62 106 122 105 69 49 55 23 10 13 357 7 30 34 25 34 35 21 16 28 29 25 62 13 7 20 14 358 356 355
149 155 147 142 145 147 141 129 118 115 103 124 103 91 105 37 33 53 48 29 19 4 349 336 354 352 29 29 29 27 23 26 37 21 16 15 10 5 4 2 358 353 348
150 153 150 147 150 154 148 134 126 111 82 174 97 98 41 28 36 39 31 18 7 1 11 12 2 360 1 9 25 46 51 52 48 34 29 27 13 8 5 4 2 357 351
155 164 158 154 153 150 146 142 146 150 137 155 123 76 46 45 48 37 37 27 29 29 18 18 25 25 18 21 21 27 30 36 38 38 40 32 25 15 7 6 5 4 3
167 167 164 159 154 148 144 136 130 145 141 139 119 78 70 56 41 47 53 38 52 36 26 15 28 23 12 5 10 15 14 20 31 39 43 40 28 26 27 21 19 16 9
167 168 165 159 153 149 143 133 117 117 108 93 101 75 56 66 46 21 357 312 19 2 29 28 16 11 9 6 12 14 21 17 12 18 26 31 20 28 40 41 34 25 19
164 161 159 159 155 150 142 130 117 114 103 87 71 52 31 25 360 349 340 349 346 343 15 19 1 2 1 2 9 13 17 21 26 26 25 22 12 20 27 33 27 20 11
163 162 162 161 156 151 142 129 122 115 102 94 79 36 23 14 2 349 349 352 351 354 358 356 5 10 16 16 20 24 22 20 33 27 21 10 4 1 4 6 12 18 15
169 169 167 165 162 153 148 140 131 125 116 106 98 71 38 22 4 355 357 4 357 4 7 11 18 18 26 35 19 14 22 27 17 16 12 6 2 1 1 360 1 359 360
184 178 177 176 172 164 162 156 146 142 135 126 120 111 81 55 24 17 24 19 9 11 14 20 29 33 28 35 36 28 29 20 21 27 24 14 7 4 2 358 359 356 353
195 197 191 188 188 181 198 190 191 170 158 151 143 132 108 73 41 34 19 14 2 4 10 29 34 33 33 33 33 24 20 18 14 10 11 11 12 10 5 6 3 2 359
216 209 206 208 205 212 212 237 294 274 264 208 181 152 350 54 52 15 7 1 357 358 5 9 12 14 21 21 20 18 14 9 11 18 19 15 11 8 5 4 3 2 359
248 238 233 223 230 225 223 217 215 264 290 322 299 27 47 32 0 350 355 356 2 1 353 352 360 12 19 15 17 17 16 20 20 18 14 13 11 8 5 2 359 358 355
267 258 238 229 234 238 233 237 229 227 224 261 293 312 337 337 345 339 350 349 352 350 335 347 357 10 15 14 14 15 19 19 18 18 17 16 11 7 4 3 1 357 353
288 283 264 255 243 234 226 231 234 239 245 256 267 295 298 312 319 324 338 330 339 344 341 342 351 10 16 17 16 14 14 13 15 14 10 8 6 3 2 360 358 355 353
302 294 274 258 248 255 242 235 235 240 253 258 267 277 285 292 299 304 320 321 326 332 334 339 346 353 2 0 5 8 6 6 6 7 5 4 4 3 1 360 358 354 352
335 339 304 263 237 240 249 250 249 257 260 266 273 276 278 291 295 300 302 312 321 329 334 338 349 354 358 1 359 359 1 6 9 4 3 5 4 2 360 357 355 352 350
14 30 117 190 259 262 261 258 251 260 254 264 270 275 265 296 304 302 311 318 323 329 338 341 350 3 2 0 1 4 7 3 1 1 1 2 3 1 358 356 354 352 350
24 113 132 120 150 167 158 191 230 243 255 266 269 261 274 292 296 310 316 321 324 329 338 348 351 352 355 355 356 357 358 1 1 0 359 1 0 0 358 356 355 353 351
296 115 132 128 130 135 146 155 165 171 244 262 264 278 286 291 299 305 316 326 330 333 338 341 344 348 351 356 1 4 3 359 359 359 0 360 360 360 358 358 356 354 354
211 192 157 166 170 200 203 217 263 263 271 268 271 287 293 288 295 303 312 320 323 329 336 341 342 342 348 353 2 6 3 0 2 2 360 360 2 3 1 358 356 356 357
214 243 236 221 248 228 266 276 277 274 270 269 273 283 291 289 293 298 304 311 316 323 333 338 345 347 356 356 6 10 4 2 4 2 0 4 5 4 1 359 358 359 0